Home > Weather > Lautoka > Past weeks

Flag for Fiji Past Weather in Lautoka, Fiji — Yesterday and Last 2 Weeks

Now
82 °F

Scattered clouds.


Feels Like: 85 °F
Forecast: 73 / 83 °F
Wind: 14 mph from West

Location: Nandi

Current Time: Jul 27, 2016 at 4:00:51 PM

Latest Report: Jul 27, 2016 at 3:00 PM


Visibility: N/A

Pressure: 29.92 "Hg

Humidity: 62%

Dew Point: 68 °F

Location of LautokaLocation

Past Weather in Lautoka — Graph

°F

Lautoka Temperature Yesterday

Maximum temperature yesterday: 88 °F (at 11:00 AM)
Minimum temperature yesterday: 68 °F (at 12:00 AM)
Average temperature yesterday: 76 °F

High & Low Weather Summary for the Past Weeks

 TemperatureHumidityPressure
High88 °F (Jul 26, 11:00 AM)94% (Jul 13, 2:00 AM)30.09 "Hg (Jul 13, 2:00 AM)
Low61 °F (Jul 13, 2:00 AM)40% (Jul 20, 11:00 AM)29.86 "Hg (Jul 12, 3:00 PM)
Average73 °F71%29.98 "Hg
* Reported Jul 12 3:00 PM — Jul 27 3:00 PM, Lautoka, Weather by CustomWeather, © 2016

Note: Actual official high and low records may vary slightly from our data, if they occured in-between our weather recording intervals... More about our weather records

Advertising

Lautoka Weather History for the Previous 24 Hours

Scroll right to see more
 ConditionsComfort  
Time TempWeatherWind HumidityBarometerVisibility
3:00 PM
Wed, Jul 27
82 °FScattered clouds.14 mph62%29.92 "HgN/A
2:00 PM82 °FScattered clouds.15 mph66%29.92 "HgN/A
1:00 PM84 °FScattered clouds.14 mph62%29.95 "HgN/A
12:00 PM84 °FScattered clouds.14 mph58%29.98 "HgN/A
11:00 AM86 °FPassing clouds.8 mph55%29.98 "HgN/A
10:00 AM84 °FPassing clouds.3 mph55%30.01 "HgN/A
9:00 AM81 °FSunny.8 mph66%30.04 "Hg10 mi
8:00 AM75 °FSunny.8 mph74%30.01 "Hg10 mi
7:00 AM73 °FPassing clouds.9 mph74%29.98 "HgN/A
6:00 AM70 °FPassing clouds.6 mph83%29.98 "HgN/A
5:00 AM70 °FPassing clouds.8 mph88%29.98 "HgN/A
4:00 AM70 °FPassing clouds.6 mph88%29.95 "HgN/A
3:00 AM70 °FPassing clouds.No wind88%29.95 "HgN/A
2:00 AM70 °FPassing clouds.5 mph88%29.98 "HgN/A
1:00 AM72 °FPassing clouds.No wind83%29.98 "HgN/A
12:00 AM72 °FPassing clouds.3 mph83%29.98 "HgN/A
11:00 PM
Tue, Jul 26
72 °FPassing clouds.No wind88%29.98 "HgN/A
10:00 PM73 °FPassing clouds.No wind89%29.98 "HgN/A
9:00 PM75 °FPassing clouds.7 mph89%29.98 "HgN/A
8:00 PM77 °FPassing clouds.6 mph83%29.98 "HgN/A
7:00 PM79 °FPassing clouds.6 mph79%29.95 "HgN/A
6:00 PM79 °FPassing clouds.8 mph79%29.92 "HgN/A
5:00 PM82 °FScattered clouds.12 mph70%29.89 "HgN/A
4:00 PM84 °FPassing clouds.13 mph66%29.89 "HgN/A
Weather by CustomWeather, © 2016

See weather overviewHow to use our weather pages